CW8688 Weather Reports


time (UTC)temp
F
wind
direction
speed
knots
gust
knots
rain 1hr
in
rain 24hr
in
rain mn
in
humidity
%
barometer
mb
20260507183205 70 271 0.0 0.0 0.00 0.00 0.00 71 1015.2
20260507182306 70 252 0.0 0.0 0.00 0.00 0.00 71 1015.2
20260507181403 71 293 0.0 0.0 0.00 0.00 0.00 68 1015.2
20260507180502 71 75 0.0 0.0 0.00 0.00 0.00 68 1015.2
20260507175530 70 119 0.0 0.0 0.00 0.00 0.00 70 1015.6
20260507174558 70 229 0.0 0.0 0.00 0.00 0.00 70 1015.6
20260507173657 70 47 0.0 0.0 0.00 0.00 0.00 70 1015.6
20260507172756 69 354 0.0 0.0 0.00 0.00 0.00 71 1015.6
20260507171855 68 337 0.0 0.0 0.00 0.00 0.00 75 1015.6
20260507170954 66 189 0.0 0.0 0.00 0.00 0.00 77 1015.6
20260507170022 65 260 0.0 0.0 0.00 0.00 0.00 79 1015.9
20260507165121 65 296 0.0 0.0 0.00 0.00 0.00 80 1015.9
20260507164118 66 267 0.0 0.0 0.00 0.00 0.00 78 1015.9
20260507163146 66 206 0.0 0.0 0.00 0.00 0.00 80 1015.9
20260507162244 63 150 0.0 0.0 0.00 0.00 0.00 85 1016.3
20260507161343 62 75 0.0 0.0 0.00 0.00 0.00 88 1016.3
20260507160412 61 248 0.0 0.0 0.00 0.00 0.00 90 1016.3
20260507155511 61 74 0.0 0.0 0.00 0.00 0.00 92 1016.3
20260507154611 60 272 0.0 0.0 0.00 0.00 0.00 93 1016.3
20260507153709 60 272 0.0 0.0 0.00 0.00 0.00 94 1016.3
20260507152809 60 258 0.0 0.0 0.00 0.00 0.00 94 1016.3
20260507151907 59 269 0.0 0.0 0.00 0.00 0.00 95 1016.3
20260507151007 59 269 0.0 0.0 0.00 0.00 0.00 95 1016.3
20260507150106 58 54 0.0 0.0 0.00 0.00 0.00 95 1015.9
20260507145205 58 54 0.0 0.0 0.00 0.00 0.00 95 1016.3
20260507144233 57 257 0.0 0.0 0.00 0.00 0.00 95 1015.9
20260507143331 57 256 0.0 0.0 0.00 0.00 0.00 95 1015.9
20260507142431 56 256 0.0 0.0 0.00 0.00 0.00 95 1015.9
20260507141530 56 256 0.0 0.0 0.00 0.00 0.00 96 1015.9
20260507140629 55 256 0.0 0.0 0.00 0.00 0.00 95 1015.9
20260507135656 55 256 0.0 0.0 0.00 0.00 0.00 95 1015.6
20260507134756 54 256 0.0 0.0 0.00 0.00 0.00 95 1015.6
20260507133855 54 256 0.0 0.0 0.00 0.00 0.00 95 1015.6
20260507132851 54 256 0.0 0.0 0.00 0.00 0.00 95 1015.6
20260507131919 54 256 0.0 0.0 0.00 0.00 0.00 95 1015.6
20260507131018 54 256 0.0 0.0 0.00 0.00 0.00 95 1015.6
20260507130117 54 256 0.0 0.0 0.00 0.00 0.00 95 1015.6
20260507125216 53 256 0.0 0.0 0.00 0.00 0.00 95 1015.6
20260507124315 53 256 0.0 0.0 0.00 0.00 0.00 95 1015.2
20260507123414 53 233 0.0 0.0 0.00 0.00 0.00 95 1015.2
20260507122513 53 233 0.0 0.0 0.00 0.00 0.00 95 1015.2
20260507121613 52 233 0.0 0.0 0.00 0.00 0.00 95 1015.2
20260507120712 52 233 0.0 0.0 0.00 0.00 0.00 95 1015.2
20260507115811 53 233 0.0 0.0 0.00 0.00 0.00 95 1015.2
20260507114838 53 233 0.0 0.0 0.00 0.00 0.00 95 1015.2
20260507113937 53 233 0.0 0.0 0.00 0.00 0.00 95 1015.2
20260507113037 52 233 0.0 0.0 0.00 0.00 0.00 95 1015.2
20260507112136 53 233 0.0 0.0 0.00 0.00 0.00 95 1015.2
20260507111234 53 233 0.0 0.0 0.00 0.00 0.00 95 1015.2
20260507110334 53 233 0.0 0.0 0.00 0.00 0.00 95 1015.2
20260507105433 54 233 0.0 0.0 0.00 0.00 0.00 95 1015.2
20260507104532 53 233 0.0 0.0 0.00 0.00 0.00 95 1015.2
20260507103600 53 233 0.0 0.0 0.00 0.00 0.00 95 1015.2
20260507102659 53 233 0.0 0.0 0.00 0.00 0.00 95 1015.6
20260507101758 54 233 0.0 0.0 0.00 0.00 0.00 95 1015.6
20260507100856 54 233 0.0 0.0 0.00 0.00 0.00 95 1015.6
20260507095954 53 233 0.0 0.0 0.00 0.00 0.00 94 1015.6
20260507095054 53 233 0.0 0.0 0.00 0.00 0.00 94 1015.6
20260507094121 53 233 0.0 0.0 0.00 0.00 0.00 94 1015.6
20260507093149 53 233 0.0 0.0 0.00 0.00 0.00 94 1015.6
20260507092248 54 233 0.0 0.0 0.00 0.00 0.00 94 1015.9
20260507091346 55 233 0.0 0.0 0.00 0.00 0.00 94 1015.9
20260507090444 54 233 0.0 0.0 0.00 0.00 0.00 94 1015.9
20260507085543 55 233 0.0 0.0 0.00 0.00 0.00 94 1015.9
20260507084642 55 233 0.0 0.0 0.00 0.00 0.00 94 1016.3
20260507083741 55 233 0.0 0.0 0.00 0.00 0.00 94 1016.3
20260507082841 55 250 0.0 0.0 0.00 0.00 0.00 94 1016.3
20260507081940 55 250 0.0 0.0 0.00 0.00 0.00 94 1016.3
20260507081039 55 250 0.0 0.0 0.00 0.00 0.00 93 1016.3
20260507080138 55 249 0.0 0.0 0.00 0.00 0.00 93 1016.3
20260507075206 56 249 0.0 0.0 0.00 0.00 0.00 93 1016.3
20260507074305 56 250 0.0 0.0 0.00 0.00 0.00 93 1016.6
20260507073404 56 250 0.0 0.0 0.00 0.00 0.00 93 1016.6
20260507072503 56 250 0.0 0.0 0.00 0.00 0.00 93 1016.6
20260507071602 56 250 0.0 0.0 0.00 0.00 0.00 93 1016.6
20260507070701 56 250 0.0 0.0 0.00 0.00 0.00 93 1016.6
20260507065801 57 250 0.0 0.0 0.00 0.00 0.00 93 1016.6
20260507064900 57 250 0.0 0.0 0.00 0.00 0.00 93 1016.6
20260507063958 56 250 0.0 0.0 0.00 0.00 0.00 93 1016.6
20260507063058 57 250 0.0 0.0 0.00 0.00 0.00 92 1016.6
20260507062157 57 249 0.0 0.0 0.00 0.00 0.00 92 1016.6
20260507061256 57 250 0.0 0.0 0.00 0.00 0.00 92 1016.6
20260507060355 57 250 0.0 0.0 0.00 0.00 0.00 91 1016.6
20260507055454 57 250 0.0 0.0 0.00 0.00 0.00 91 1016.6
20260507054553 58 250 0.0 0.0 0.00 0.00 0.00 91 1016.6
20260507053652 58 250 0.0 0.0 0.00 0.00 0.00 91 1016.6
20260507052751 58 250 0.0 0.0 0.00 0.00 0.00 91 1016.6
20260507051850 58 250 0.0 0.0 0.00 0.00 0.00 91 1016.6
20260507050918 58 250 0.0 0.0 0.00 0.00 0.00 90 1016.6
20260507050017 58 250 0.0 0.0 0.00 0.00 0.00 90 1016.6
20260507045116 58 274 0.0 0.0 0.00 0.00 0.00 89 1016.6
20260507044215 59 274 0.0 0.0 0.00 0.00 0.00 89 1016.6
20260507043314 59 274 0.0 0.0 0.00 0.00 0.00 89 1016.6
20260507042413 59 250 0.0 0.0 0.00 0.00 0.00 89 1016.6
20260507041441 59 256 0.0 1.7 0.00 0.00 0.00 88 1016.3
20260507040540 59 270 0.0 1.7 0.00 0.00 0.00 87 1016.3
20260507035639 60 255 0.0 1.7 0.00 0.00 0.00 87 1016.3
20260507034737 60 285 1.7 3.5 0.00 0.00 0.00 87 1016.3
20260507033836 60 256 1.7 3.5 0.00 0.00 0.00 86 1016.3
20260507032936 60 240 0.0 3.5 0.00 0.00 0.00 86 1015.9
20260507032003 61 269 1.7 3.5 0.00 0.00 0.00 86 1015.9
20260507031031 61 252 1.7 4.3 0.00 0.00 0.00 85 1015.9
20260507030130 61 252 1.7 6.1 0.00 0.00 0.00 84 1015.9
20260507025229 62 258 1.7 6.1 0.00 0.00 0.00 83 1015.9
20260507024329 62 257 1.7 3.5 0.00 0.00 0.00 81 1015.6
20260507023428 63 241 1.7 4.3 0.00 0.00 0.00 80 1015.6
20260507022527 63 258 1.7 6.1 0.00 0.00 0.00 78 1015.6
20260507021626 65 266 1.7 6.1 0.00 0.00 0.00 76 1015.6
20260507020725 66 269 1.7 6.1 0.00 0.00 0.00 74 1015.6
20260507015824 66 273 1.7 6.1 0.00 0.00 0.00 73 1015.6
20260507014923 66 277 1.7 6.1 0.00 0.00 0.00 73 1015.6
20260507014022 67 262 1.7 7.8 0.00 0.00 0.00 71 1015.6
20260507013121 67 266 2.6 7.8 0.00 0.00 0.00 70 1015.6
20260507012220 67 257 3.5 7.8 0.00 0.00 0.00 69 1015.6
20260507011320 67 267 2.6 6.1 0.00 0.00 0.00 65 1015.2
20260507010418 67 260 2.6 9.6 0.00 0.00 0.00 67 1015.2
20260507005517 68 261 2.6 9.6 0.00 0.00 0.00 66 1015.2
20260507004616 69 268 1.7 6.1 0.00 0.00 0.00 63 1015.2
20260507003644 68 298 2.6 7.8 0.00 0.00 0.00 64 1015.2
20260507002744 68 253 4.3 7.8 0.00 0.00 0.00 63 1015.2
20260507001843 68 263 2.6 7.8 0.00 0.00 0.00 62 1015.2
20260507000911 68 273 1.7 11.3 0.00 0.00 0.00 62 1015.2
20260506235939 69 259 4.3 11.3 0.00 0.00 0.00 61 1015.2
20260506235039 69 302 1.7 11.3 0.00 0.00 0.00 64 1015.2
20260506234107 68 255 4.3 11.3 0.00 0.00 0.00 64 1015.2
20260506233206 68 249 4.3 9.6 0.00 0.00 0.00 62 1014.9
20260506232306 68 265 2.6 9.6 0.00 0.00 0.00 63 1015.2
20260506231404 69 248 3.5 11.3 0.00 0.00 0.00 64 1015.2
20260506230431 68 257 3.5 11.3 0.00 0.00 0.00 66 1015.2
20260506225531 69 260 3.5 9.6 0.00 0.00 0.00 65 1015.2
20260506224630 69 268 3.5 9.6 0.00 0.00 0.00 67 1015.6
20260506223729 67 244 2.6 9.6 0.00 0.00 0.00 69 1015.6
20260506222828 68 259 3.5 9.6 0.00 0.00 0.00 68 1015.6
20260506221856 68 261 3.5 12.2 0.00 0.00 0.00 67 1015.6
20260506220955 68 250 3.5 12.2 0.00 0.00 0.00 66 1015.6
20260506220054 68 259 4.3 11.3 0.00 0.00 0.00 66 1015.9
20260506215122 69 267 2.6 11.3 0.00 0.00 0.00 66 1015.9
20260506214150 69 245 3.5 11.3 0.00 0.00 0.00 65 1015.9
20260506213217 69 266 2.6 11.3 0.00 0.00 0.00 66 1015.9
20260506212317 69 257 4.3 12.2 0.00 0.00 0.00 64 1015.9
20260506211415 69 256 3.5 12.2 0.00 0.00 0.00 64 1015.9
20260506210514 69 280 2.6 13.9 0.00 0.00 0.00 65 1015.9
20260506205613 69 285 3.5 13.9 0.00 0.00 0.00 65 1015.9
20260506204712 69 266 3.5 9.6 0.00 0.00 0.00 65 1015.9
20260506203811 69 264 0.0 0.0 0.00 0.00 0.00 65 1015.9
20260506202839 70 264 0.0 0.0 0.00 0.00 0.00 62 1016.3
20260506201938 70 249 0.0 0.0 0.00 0.00 0.00 64 1016.3
20260506201037 69 233 0.0 0.0 0.00 0.00 0.00 64 1016.3
20260506200137 69 306 0.0 0.0 0.00 0.00 0.00 66 1016.3
20260506195235 69 205 0.0 0.0 0.00 0.00 0.00 64 1016.3
20260506194335 70 316 0.0 0.0 0.00 0.00 0.00 64 1016.6
20260506193403 72 258 0.0 0.0 0.00 0.00 0.00 59 1016.6
20260506192502 73 311 0.0 0.0 0.00 0.00 0.00 59 1016.6
20260506191530 72 226 0.0 0.0 0.00 0.00 0.00 59 1016.6
20260506190629 72 36 0.0 0.0 0.00 0.00 0.00 59 1016.6
20260506185728 71 242 0.0 0.0 0.00 0.00 0.00 59 1016.9
20260506184827 71 267 0.0 0.0 0.00 0.00 0.00 61 1016.9
20260506183926 71 184 0.0 0.0 0.00 0.00 0.00 60 1016.9